Find Starlink 11534

NORAD ID: 62555 Int'l Des: 2025-006 Owner: SPXS Country: US Constellation: starlink operational
又名: STARLINK-11534 [DTC] celestrak
LEOCIRCULAR

当前视图

正在加载3D地球...

About Starlink 11534

Starlink 11534 (NORAD 62555) is a starlink constellation satellite (v2 mini d2c) launched Jan 10, 2025 by SPXS of US. It operates in LEO, CIRCULAR orbit with a mass of 960.00 kg.

即将过境

Passes for default location (London). Set your location on the main map for personalized predictions.

高度历史

Loading altitude history...

两行轨道根数

1 62555U 25006B 26263.81399063 .00183972 00000-0 13933-2 0 9995
2 62555 43.0017 43.4658 0002360 290.4527 69.6088 15.71050662 97297
Epoch: Sep 20, 2026 • Age: 13 hours

当前状态

高度 355.5 km
远地点 / 近地点 N/A
速度 7.70 km/s
星下点 14.99°N, 77.27°E
发射日期 Jan 10, 2025
运行时间 1.6 years
类型 internet

技术详情

分类 Payload
质量 960.00 kg
干质量 910.00 kg
长度 0.30 m
跨度 29.00 m
形状 ? Box + pan
制造商 SPXS
平台类型 Starlink V2MD
阶段状态 In Orbit
所有者/国家 SPXS/US

Most Searched